Weather History for KMKC - August, 2013

Change the Weather History Date:

Wednesday, August 7, 2013

  Actual Average (KMCI) Record (KMCI)
Temperature  
Mean Temperature 80 °F 78 °F  
Max Temperature 88 °F 88 °F 109 °F (1934)
Min Temperature 73 °F 68 °F 50 °F (1989)
Degree Days  
Heating Degree Days 0 0  
Month to date heating degree days 0  
Since 1 June heating degree days 9  
Since 1 July heating degree days 0  
Cooling Degree Days 16 13  
Month to date cooling degree days 92  
Year to date cooling degree days 888  
Since 1 June cooling degree days 772  
Growing Degree Days 30 (Base 50)    
Moisture  
Dew Point 70 °F    
Average Humidity 73    
Maximum Humidity 88    
Minimum Humidity 49    
Precipitation  
Precipitation 0.31 in 0.12 in 3.37 in (1928)
Month to date precipitation 0.84  
Year to date precipitation 24.35  
Snow  
Snow 0.00 in 0.00 in 0.00 in ()
Month to date snowfall 0.0  
Since 1 June snowfall 0.0  
Since 1 July snowfall 0.0  
Snow Depth -    
Sea Level Pressure  
Sea Level Pressure 29.86 in    
Wind  
Wind Speed 5 mph (West)    
Max Wind Speed 15 mph    
Max Gust Speed 25 mph    
Visibility 10 miles    
Events Rain , Thunderstorm    
T = Trace of Precipitation, MM = Missing Value Source: NWS Daily Summary

Daily Weather History Graph

Daily Weather History Graph

Search for Another Location

Airport or City:

Trip Planner

Search our weather history database for the weather conditions in past years. The results will help you decide how hot, cold, wet, or windy it might be!

Date:

Astronomy

Aug. 07, 2013 Rise Set
Actual Time 6:24 AM CDT 8:23 PM CDT
Civil Twilight 5:55 AM CDT 8:52 PM CDT
Nautical Twilight 5:19 AM CDT 9:27 PM CDT
Astronomical Twilight 4:41 AM CDT 10:06 PM CDT
Moon 7:13 AM CDT (8/7) 8:31 PM CDT (8/7)
Length of Visible Light 14h 57m
Length of Day
13h 58m
New Moon, 1% of the Moon is Illuminated
Aug 7
New Moon
Aug 14
First Quarter
Aug 20
Full
Aug 28
Last Quarter
Sep 5
New

Hourly Weather History & Observations

Time (CDT) Temp. Heat Index Dew Point Humidity Pressure Visibility Wind Dir Wind Speed Gust Speed Precip Events Conditions
12:54 AM 81.0 °F 86.7 °F 75.0 °F 82% 29.82 in 10.0 mi Calm Calm - N/A   Clear
1:54 AM 80.1 °F 84.5 °F 73.9 °F 81% 29.77 in 10.0 mi Calm Calm - N/A   Clear
2:54 AM 80.1 °F 84.5 °F 73.9 °F 81% 29.76 in 10.0 mi SSW 5.8 mph - N/A   Partly Cloudy
3:54 AM 80.1 °F 84.5 °F 73.9 °F 81% 29.78 in 10.0 mi Calm Calm - N/A   Overcast
4:15 AM 80.6 °F 85.4 °F 73.4 °F 79% 29.80 in 10.0 mi SW 3.5 mph - N/A Thunderstorm Overcast
4:28 AM 80.6 °F 84.6 °F 71.6 °F 74% 29.81 in 10.0 mi WSW 10.4 mph 17.3 mph N/A Thunderstorm Overcast
4:45 AM 78.8 °F - 69.8 °F 74% 29.83 in 10.0 mi SW 12.7 mph 25.3 mph N/A   Overcast
4:54 AM 77.0 °F - 69.1 °F 76% 29.81 in 10.0 mi WSW 8.1 mph 18.4 mph N/A   Overcast
5:14 AM 77.0 °F - 68.0 °F 74% 29.84 in 10.0 mi WSW 9.2 mph - N/A Thunderstorm Overcast
5:40 AM 75.2 °F - 69.8 °F 83% 29.85 in 10.0 mi West 10.4 mph 16.1 mph N/A Thunderstorm Overcast
5:54 AM 75.9 °F - 70.0 °F 82% 29.85 in 10.0 mi Variable 4.6 mph - 0.00 in Thunderstorm Thunderstorm
6:20 AM 73.4 °F - 69.8 °F 88% 29.87 in 2.5 mi West 12.7 mph 24.2 mph 0.13 in Rain , Thunderstorm Heavy Thunderstorms and Rain
6:37 AM 73.4 °F - 69.8 °F 88% 29.86 in 3.0 mi West 12.7 mph 20.7 mph 0.27 in Rain , Thunderstorm Heavy Thunderstorms and Rain
6:54 AM 73.9 °F - 69.1 °F 85% 29.84 in 10.0 mi WSW 6.9 mph - 0.30 in Rain , Thunderstorm Light Thunderstorms and Rain
7:12 AM 73.4 °F - 69.8 °F 88% 29.87 in 10.0 mi WSW 3.5 mph - 0.01 in Rain Light Rain
7:54 AM 73.9 °F - 70.0 °F 87% 29.87 in 10.0 mi North 6.9 mph 16.1 mph 0.01 in   Mostly Cloudy
8:54 AM 73.9 °F - 68.0 °F 82% 29.84 in 10.0 mi Calm Calm - 0.00 in   Scattered Clouds
9:54 AM 75.9 °F - 68.0 °F 76% 29.89 in 10.0 mi ENE 15.0 mph 23.0 mph N/A   Scattered Clouds
10:54 AM 79.0 °F - 70.0 °F 74% 29.91 in 10.0 mi Variable 3.5 mph - N/A   Mostly Cloudy
11:54 AM 82.0 °F 85.9 °F 70.0 °F 67% 29.89 in 10.0 mi Calm Calm - N/A   Clear
12:54 PM 84.9 °F 90.7 °F 72.0 °F 65% 29.88 in 10.0 mi WSW 5.8 mph - N/A   Clear
1:54 PM 86.0 °F 92.2 °F 72.0 °F 63% 29.88 in 10.0 mi WSW 5.8 mph - N/A   Partly Cloudy
2:35 PM 86.0 °F 93.4 °F 73.4 °F 66% 29.90 in 10.0 mi West 8.1 mph - N/A   Mostly Cloudy
2:54 PM 86.0 °F 93.0 °F 73.0 °F 65% 29.88 in 10.0 mi WNW 5.8 mph - N/A   Mostly Cloudy
3:06 PM 84.2 °F 90.9 °F 73.4 °F 70% 29.90 in 10.0 mi WNW 6.9 mph - N/A   Scattered Clouds
3:54 PM 87.1 °F 96.3 °F 75.0 °F 67% 29.88 in 10.0 mi Variable 5.8 mph - N/A   Clear
4:54 PM 88.0 °F 95.6 °F 73.0 °F 61% 29.88 in 10.0 mi West 4.6 mph - N/A   Scattered Clouds
5:54 PM 87.1 °F 93.6 °F 72.0 °F 61% 29.87 in 10.0 mi WNW 5.8 mph - N/A   Scattered Clouds
6:54 PM 87.1 °F 89.2 °F 66.0 °F 49% 29.87 in 10.0 mi North 8.1 mph - N/A   Clear
7:54 PM 84.0 °F 86.5 °F 66.9 °F 56% 29.88 in 10.0 mi North 5.8 mph - N/A   Clear
8:54 PM 81.0 °F 83.3 °F 66.9 °F 62% 29.90 in 10.0 mi North 6.9 mph - N/A   Clear
9:54 PM 79.0 °F - 66.0 °F 64% 29.92 in 10.0 mi North 4.6 mph - N/A   Clear
10:54 PM 77.0 °F - 64.0 °F 64% 29.93 in 10.0 mi NNE 5.8 mph - N/A   Clear
11:54 PM 75.0 °F - 64.0 °F 69% 29.93 in 10.0 mi ENE 5.8 mph - N/A   Clear